Location: Morlupo
(42.1333°N, 12.5000°E)
Time: 17:08:20
(UTC+00:00)

Cosmos 1943 - Pass Details

Date: 18 September 2020
Orbit: 833 x 850 km, 71.0° (Epoch: 20 October)

Event Time Altitude Azimuth Distance (km) Brightness Sun altitude
Rises 18:03:31 0° 336° (NNW) 3,399 6.9 -10.0°
Reaches altitude 10° 18:05:58 10° 338° (NNW) 2,464 6.1 -10.4°
Maximum altitude 18:11:39 79° 65° (ENE) 862 3.2 -11.5°
Drops below altitude 10° 18:17:18 10° 153° (SSE) 2,459 5.2 -12.5°
Enters shadow 18:19:00 - 154° (SSE) 3,105 5.8 -12.8°
